Theta_e
309 309 309 309 309 310 310 311 312 312 312 314 315 315 316 318 317 309 303 309 310 318 313 300 299 298 297 294 295 296 289 289 292 295 298 304 299 305 309 306 306 309 309 312 309
307 307 307 308 308 308 309 309 309 310 311 311 313 314 315 318 308 302 312 320 323 323 302 297 294 296 291 291 292 289 285 287 294 297 297 299 299 300 294 295 296 296 306 306 308
306 306 307 307 307 307 307 308 308 309 310 310 312 313 314 315 300 298 319 324 325 318 299 297 295 296 290 290 290 289 285 291 292 295 295 294 292 293 291 291 294 295 297 306 304
305 305 305 305 305 307 307 307 307 308 308 308 310 312 314 307 290 299 314 321 322 306 299 294 292 288 287 288 291 285 289 291 292 293 291 290 293 290 291 293 295 296 297 299 304
304 304 304 304 304 306 306 307 307 307 307 308 308 311 307 295 291 300 309 312 309 303 298 294 289 288 286 287 289 287 288 290 292 292 291 291 289 290 292 293 293 294 295 296 297
303 303 303 303 304 305 306 306 306 307 307 309 309 311 299 285 298 298 298 298 306 303 300 295 291 291 287 287 287 288 288 288 289 289 289 289 289 289 293 295 292 293 294 296 296
302 302 302 303 303 304 304 306 309 309 313 311 311 307 291 286 295 295 294 294 295 295 296 298 295 290 289 286 289 289 285 288 289 287 287 289 287 288 294 295 294 294 294 295 296
302 301 301 302 303 303 304 308 312 313 313 312 312 302 287 295 294 293 292 293 296 295 295 295 294 290 288 289 287 284 283 278 286 288 288 288 282 288 290 291 291 292 293 295 296
301 301 302 302 301 301 304 308 310 308 312 306 298 290 281 294 288 290 290 288 293 293 293 296 291 287 286 281 280 279 277 280 283 288 288 286 285 291 293 290 290 291 289 292 295
301 301 301 301 300 300 302 304 304 300 297 298 290 284 284 282 287 288 290 289 290 290 289 288 285 280 279 278 274 276 275 279 279 283 285 285 285 290 291 289 289 291 291 289 292
301 300 300 301 299 300 294 289 285 286 287 282 280 281 283 287 290 285 288 286 287 286 279 283 278 275 279 280 281 279 278 277 281 285 284 283 284 287 289 287 290 291 292 293 294
300 300 300 300 298 298 290 285 284 287 279 285 283 283 285 286 280 282 288 280 280 275 280 278 275 276 279 281 281 280 278 277 280 284 282 282 282 286 289 289 288 290 292 293 294
300 299 299 298 297 289 287 286 291 288 280 280 284 281 282 284 279 279 284 281 278 276 275 272 276 277 276 276 274 272 270 277 279 283 285 283 281 283 287 289 291 291 291 293 292
299 298 298 296 287 286 284 290 291 289 267 274 278 280 283 282 277 283 285 281 277 273 274 273 275 274 274 273 273 269 277 276 277 277 275 283 274 282 286 287 289 290 289 290 291
299 298 297 295 284 282 287 290 291 287 262 275 277 285 282 277 278 277 284 281 274 274 272 269 271 271 272 272 274 272 277 275 274 273 277 278 275 278 284 283 286 287 288 284 285
299 298 295 288 285 285 289 290 286 270 259 267 276 275 276 277 277 278 279 282 280 274 273 272 275 274 272 274 275 277 274 274 274 276 272 276 275 276 279 282 286 288 283 284 284
298 298 290 289 281 288 288 285 269 263 269 264 269 275 274 273 274 274 273 272 267 261 265 270 271 274 275 270 274 273 271 266 267 270 270 277 274 277 283 284 285 283 281 282 282
298 296 289 287 288 287 281 273 262 259 260 275 274 274 271 272 272 272 271 268 269 269 265 263 261 270 274 271 268 271 270 265 260 264 268 276 273 274 280 281 281 281 280 280 279
296 285 281 287 288 282 275 261 260 265 273 272 272 267 261 270 270 269 268 264 265 268 262 261 264 272 274 274 275 268 268 272 267 268 265 275 279 282 281 280 279 278 277 276 276
283 280 279 288 285 278 270 263 263 276 275 274 265 269 256 259 265 265 267 266 270 274 271 268 262 271 273 274 274 272 274 265 267 260 260 272 271 270 276 276 276 276 275 275 275
282 274 281 287 281 273 262 257 270 277 276 273 271 265 268 264 265 260 265 271 270 272 274 263 263 267 271 266 267 269 266 268 268 267 262 261 268 278 276 275 274 274 275 274 274
277 269 282 282 269 256 259 268 277 275 276 275 273 272 268 270 263 263 263 268 273 271 268 269 265 261 264 269 274 271 268 268 262 261 265 266 267 279 277 276 275 275 275 275 274
271 271 282 278 263 257 264 271 275 274 274 273 272 274 272 270 261 269 271 274 274 272 264 271 260 253 260 263 269 261 269 269 269 269 264 262 266 279 276 275 275 275 275 275 274
270 266 270 272 271 266 260 265 268 276 274 274 272 273 271 269 271 262 270 274 276 275 279 273 255 258 255 261 265 260 264 268 265 262 264 265 268 273 273 273 274 274 275 274 274
270 268 265 261 264 262 266 270 271 270 272 274 271 268 263 259 265 266 270 271 274 276 274 268 257 256 263 266 266 265 263 264 265 269 264 268 270 271 274 273 273 274 275 274 274
268 266 265 262 267 264 266 267 270 272 269 267 264 272 272 262 267 266 269 269 268 268 265 265 260 258 262 267 267 264 265 264 269 270 269 270 269 275 276 275 273 273 273 273 273
273 274 272 268 261 262 264 271 272 273 273 273 271 271 271 272 273 272 272 273 272 266 268 265 258 252 254 265 263 253 260 263 268 269 267 264 268 274 273 273 272 272 272 272 273
Wind_Speed
17 18 18 18 17 17 17 16 15 14 14 14 13 13 13 16 14 1 4 8 6 10 5 4 2 3 0 3 3 1 2 8 12 17 16 5 5 5 5 8 6 5 3 7 4
18 18 18 18 18 18 18 18 17 16 15 13 12 12 12 14 0 2 9 17 13 6 1 2 3 2 2 3 3 5 5 11 7 13 20 14 6 6 4 8 16 9 5 3 3
20 20 21 21 21 20 19 18 16 14 13 12 12 14 13 9 1 8 24 21 7 3 1 2 3 3 5 4 6 6 10 9 9 12 7 9 6 5 6 15 15 13 7 3 1
20 21 21 21 22 21 20 19 18 15 13 11 9 9 12 2 5 12 24 17 9 7 6 3 2 3 5 8 7 8 10 16 10 11 6 10 14 9 14 17 7 12 12 9 12
21 22 22 22 22 20 21 18 16 17 13 9 6 7 3 9 4 19 22 12 5 3 4 3 4 3 6 5 6 11 10 10 13 11 10 8 15 25 31 15 13 14 16 18 15
22 23 22 23 22 22 24 23 21 14 8 5 4 4 5 11 11 15 20 11 7 4 4 2 5 5 9 9 10 5 6 11 8 11 7 11 14 8 26 14 13 17 22 24 23
24 24 24 24 23 24 25 22 12 8 6 10 11 4 20 7 7 18 21 10 6 4 4 5 5 2 7 8 6 7 15 17 16 5 9 5 22 32 25 21 23 19 21 22 22
24 23 24 24 23 26 26 16 12 14 16 14 8 2 6 2 10 29 21 15 13 8 3 7 5 6 6 6 8 10 8 8 1 7 6 11 35 10 10 15 26 22 19 21 23
24 24 24 24 23 27 20 12 11 16 17 10 6 8 6 12 21 20 18 15 11 7 7 5 3 6 3 4 9 3 15 18 24 7 6 11 31 13 15 11 18 17 11 14 18
25 24 24 23 22 27 11 13 29 15 7 4 10 7 10 14 12 24 21 15 4 10 8 7 4 5 5 4 11 6 8 11 19 0 7 17 31 27 16 8 16 17 14 10 12
25 24 25 23 21 25 9 5 8 10 21 14 6 7 10 17 2 25 20 11 8 7 8 6 6 7 15 11 16 20 21 27 33 20 15 23 24 29 15 11 19 20 18 17 15
25 24 25 21 20 23 7 7 1 4 13 8 14 6 11 6 12 27 21 12 9 10 16 8 4 20 18 18 18 19 25 32 30 18 14 28 27 31 27 22 12 18 21 19 18
25 26 25 19 17 8 11 6 4 2 7 8 6 10 13 7 11 24 20 9 8 15 16 5 9 18 17 14 26 22 17 25 28 26 20 20 27 26 25 18 18 15 14 17 14
24 26 26 14 9 5 4 10 7 1 9 15 12 9 14 10 8 13 12 6 10 10 10 6 13 18 16 11 21 19 10 26 26 22 21 2 21 22 21 19 16 12 10 14 13
23 23 23 14 1 4 5 9 6 4 8 16 7 5 9 13 7 16 7 7 8 7 8 15 12 18 18 16 19 13 20 22 27 22 22 27 17 20 15 26 16 11 11 8 11
21 18 18 5 3 2 7 5 4 10 2 8 6 8 11 9 4 10 6 7 2 3 6 18 6 7 11 21 15 18 22 25 13 11 17 20 14 18 24 22 23 10 9 10 12
19 15 7 2 5 12 4 3 8 11 5 10 5 8 8 12 6 11 12 8 10 9 16 6 7 13 5 21 25 22 21 8 5 7 14 10 9 18 12 15 11 9 14 15 15
18 10 4 2 7 4 4 8 13 4 6 3 4 10 5 9 4 10 9 6 5 4 11 10 9 16 19 20 11 14 9 6 8 9 11 14 8 5 15 18 19 18 15 16 19
12 4 3 9 9 3 8 11 9 7 4 2 6 5 6 5 2 8 5 2 2 4 5 6 6 18 8 16 5 13 8 14 8 18 9 6 1 11 20 19 19 18 18 19 18
2 3 4 14 5 6 11 6 4 2 1 1 3 1 2 5 6 5 5 4 4 9 4 5 11 5 17 5 9 8 12 8 6 8 10 9 10 13 23 18 18 20 19 18 16
4 5 5 14 5 10 7 6 4 3 2 3 2 2 3 2 2 3 4 6 2 6 9 3 4 10 9 7 8 7 9 5 6 5 6 10 4 12 16 16 17 17 17 17 17
3 5 6 6 10 2 3 6 4 3 1 2 3 5 4 1 3 3 5 6 2 1 5 3 4 6 13 12 9 9 9 5 5 6 9 8 6 16 15 13 13 13 13 15 16
3 2 5 5 6 3 5 0 3 3 3 2 3 3 2 2 3 5 5 4 6 5 2 3 3 6 8 6 2 2 10 13 13 10 11 8 7 16 14 13 12 13 12 12 15
4 4 6 7 2 7 4 2 1 4 3 3 4 3 0 3 6 6 6 8 7 10 17 5 2 8 7 12 11 7 13 18 7 7 11 14 23 16 14 13 16 15 13 11 12
4 0 5 2 4 4 3 4 2 2 1 4 1 5 6 3 5 6 4 11 7 12 1 5 5 6 11 15 17 16 14 12 13 15 6 15 16 11 10 10 11 11 13 12 14
4 4 4 2 0 4 2 4 5 3 5 4 5 4 6 7 10 14 17 3 8 2 4 1 6 2 14 15 15 18 17 10 9 8 8 12 7 9 8 5 8 12 12 13 13
2 2 5 4 2 4 5 5 6 5 4 6 6 3 10 13 10 13 13 14 15 8 12 4 3 3 9 8 12 8 9 6 5 7 3 4 5 7 9 6 6 7 10 12 12
Wind_Direction
14 10 5 1 356 348 343 339 336 332 330 329 327 320 319 318 323 34 273 264 241 274 347 360 338 290 346 250 227 278 221 220 226 228 244 276 295 273 271 279 288 261 270 277 334
12 7 2 356 352 344 339 335 333 329 326 327 329 324 313 321 130 99 277 299 265 271 257 272 279 253 272 240 225 168 203 219 224 234 261 277 261 278 294 301 291 293 256 315 8
7 2 358 353 348 342 338 333 329 326 329 329 328 326 315 337 349 30 339 338 267 191 272 198 288 234 222 208 216 210 228 227 245 245 254 280 257 223 255 263 239 267 264 235 280
5 1 356 352 347 344 343 337 332 328 323 321 316 312 307 248 73 341 341 343 13 349 324 309 245 248 233 219 234 255 236 240 258 249 259 245 294 250 223 243 249 254 258 236 219
4 359 354 350 349 344 340 331 322 317 309 308 304 291 309 51 356 328 330 313 332 354 328 305 248 254 242 233 261 238 251 246 244 257 248 280 265 271 269 257 240 248 264 264 250
3 358 354 352 350 344 337 333 318 311 294 253 184 235 53 65 320 345 357 346 340 338 311 298 271 299 274 253 235 294 275 272 268 257 247 251 266 249 265 260 239 246 252 255 254
1 359 357 354 351 345 340 333 344 358 26 129 160 155 69 78 319 12 7 328 307 315 286 281 275 221 326 309 281 305 303 294 261 222 233 201 269 245 255 272 258 242 243 250 252
2 1 358 354 353 350 341 348 36 59 88 115 150 75 108 334 359 18 353 352 327 306 224 246 246 242 203 281 321 316 296 294 227 220 264 153 258 254 236 249 264 254 247 251 255
2 2 1 359 5 350 350 22 53 54 89 69 45 80 353 333 15 353 3 342 317 316 290 277 278 220 328 353 311 195 270 268 286 224 254 187 264 270 248 218 252 265 243 247 263
2 4 3 360 15 357 358 65 68 40 1 50 50 53 6 345 329 5 353 339 334 336 352 5 332 23 22 45 263 287 281 277 270 294 240 242 255 260 263 300 255 262 267 250 258
3 6 4 4 20 10 10 22 17 24 47 72 85 105 316 327 64 6 349 348 360 35 3 312 37 356 337 324 308 303 289 281 275 281 291 277 269 270 274 253 267 262 264 262 254
2 4 3 6 31 22 42 72 35 160 73 54 57 59 358 331 17 10 358 21 19 13 359 12 26 355 340 344 330 306 289 276 289 292 253 270 263 271 267 267 248 265 272 269 267
3 2 2 359 33 30 49 45 325 312 84 21 14 14 7 353 36 2 360 338 22 15 357 342 345 336 343 6 353 323 298 300 285 289 274 294 284 268 270 265 267 268 272 277 260
2 2 2 9 51 341 32 338 333 78 81 354 353 9 350 350 36 354 356 15 21 11 4 358 328 325 326 4 348 315 332 313 301 302 266 200 273 268 280 279 287 278 275 269 311
356 2 6 36 122 50 291 317 315 46 58 333 339 312 343 36 283 342 344 9 45 24 48 317 312 330 354 339 332 294 298 294 285 274 274 250 261 280 276 278 270 286 291 33 9
349 350 9 21 28 262 309 312 41 42 285 328 326 347 355 14 349 326 9 355 119 321 60 316 292 13 298 339 311 307 307 290 249 234 244 253 233 258 270 268 270 227 71 33 20
342 343 30 29 312 313 321 65 41 85 338 314 333 341 338 343 328 5 353 11 39 3 342 356 306 9 327 327 328 355 348 328 320 248 250 204 209 255 276 352 332 30 43 33 26
340 346 342 172 313 316 64 51 68 236 238 302 310 318 8 1 347 343 357 11 11 63 318 344 339 10 321 329 308 324 336 316 299 301 306 291 211 60 39 35 45 50 43 34 26
348 352 12 339 342 66 74 52 183 202 205 285 332 38 322 339 351 2 352 259 241 35 38 332 264 322 331 328 345 319 356 289 269 256 252 233 280 54 20 28 33 32 32 28 22
44 9 326 340 1 60 71 136 170 187 141 225 147 94 242 285 9 32 324 227 345 11 120 275 296 307 331 311 15 44 346 352 330 317 319 315 62 9 359 17 21 25 23 18 16
45 41 274 341 43 48 94 202 189 174 121 192 201 279 244 316 235 267 250 295 58 344 335 208 174 301 323 346 26 360 355 1 287 305 324 331 72 34 34 19 15 16 12 12 11
59 42 315 0 55 27 91 171 174 177 249 231 132 202 188 270 271 275 234 190 32 175 331 231 239 298 306 301 144 5 311 325 335 315 291 255 256 36 45 28 17 13 12 8 6
71 251 332 45 90 356 317 26 189 176 216 184 222 174 192 236 337 249 259 222 332 12 339 284 298 320 330 330 7 265 324 317 307 269 265 278 276 9 14 6 8 2 6 5 11
67 28 341 34 100 115 118 262 268 211 228 162 202 75 179 267 210 262 263 290 326 303 307 43 142 169 218 261 291 283 296 299 274 262 277 262 296 337 345 355 358 359 357 5 7
35 238 178 327 346 84 79 175 182 237 233 198 274 186 162 252 283 244 246 301 294 295 183 139 232 195 242 264 278 275 273 277 290 295 241 308 302 355 358 360 354 349 351 0 5
97 87 354 167 3 77 319 235 204 227 155 265 172 210 196 202 202 280 288 226 247 306 129 234 265 161 284 259 276 290 290 259 271 320 324 323 348 0 324 353 358 350 351 0 5
309 19 101 300 60 88 223 212 211 154 257 203 189 202 253 260 253 239 235 253 245 233 283 228 193 62 265 329 316 327 219 212 242 249 239 307 272 319 339 329 343 348 343 349 356